Simultaneous Nadir Overpasses (SNOs) Predictions

Prediction of SNOs between AQUA and NPP Satellite Orbit:

Table of predicted SNOs for the next 14.0 days since TLE Epoch: 8/16/2019
Index Date (AQUA) Time (AQUA) Lat,Lon (AQUA) SZA (AQUA ) Date (NPP) Time (NPP) Lat,Lon (NPP) SZA (NPP ) Distance(km) Time Diff (sec)
1 08/18/2019 13:16:10 74.12,-144.90 86.75 08/18/2019 13:14:57 74.12,-144.93 86.82 0.98 73
2 08/18/2019 14:05:06 -75.69, 26.81 95.02 08/18/2019 14:05:10 -75.70, 26.87 95.04 1.75 4
3 08/21/2019 05:32:24 74.91, -27.11 86.69 08/21/2019 05:31:36 74.91, -27.03 86.71 2.39 48
4 08/21/2019 06:21:31 -75.91, 143.33 94.44 08/21/2019 06:22:01 -75.91, 143.32 94.47 0.16 30
5 08/23/2019 21:48:48 75.13, 89.35 87.29 08/23/2019 21:48:26 75.13, 89.35 87.31 0.02 22
6 08/23/2019 22:37:55 -76.12,-100.13 93.85 08/23/2019 22:38:51 -76.11,-100.20 93.88 2.19 56
7 08/26/2019 13:16:07 -74.34, 35.60 90.99 08/26/2019 13:14:54 -74.35, 35.66 90.94 1.76 73
8 08/26/2019 14:05:13 75.35,-154.18 87.90 08/26/2019 14:05:17 75.34,-154.26 87.92 2.40 4
9 08/29/2019 05:32:32 -74.56, 152.02 90.36 08/29/2019 05:31:45 -74.56, 151.99 90.31 0.90 47




NCC Satellite Simultaneous Nadir Overpasses (SNOs) Prediction Service
